User: anonymous   Login
Location: Oshawa
(43.9000°N, 78.8670°W)
Time: 03:12:53
(UTC-04:00)
Language:

Explorer 11/Cluster Stage 4 - Orbit

View from above orbital plane
View from above orbital plane
View from above satellite
View from above satellite

Ground track
Ground track

The orbit data is extracted from the following two-line orbital elements,

1   107U 61013A   17083.18057278 +.00000843 +00000-0 +96295-4 0  9996
2   107 028.7878 009.6902 0549703 098.7274 267.5927 14.08254090799524
Epoch (UTC): 24 March 2017 04:20:01
Eccentricity: 0.0549703
inclination: 28.7878°
perigee height: 467 km
apogee height: 1263 km
right ascension of ascending node: 9.6902°
argument of perigee: 98.7274°
revolutions per day: 14.08254090
mean anomaly at epoch: 267.5927°
orbit number at epoch: 79952

The dashed part of the orbit path shows where the satellite is in the earth's shadow,  

DLR